Weather History for Yeovilton, United Kingdom

Change the Weather History Date:

Wednesday, September 19, 2012

  Actual Average Record
Temperature  
Mean Temperature 48 °F -  
Max Temperature 61 °F 60 °F 71 °F (1998)
Min Temperature 36 °F 45 °F 36 °F (2012)
Degree Days  
Heating Degree Days 16    
Moisture  
Dew Point 42 °F    
Average Humidity 76    
Maximum Humidity 100    
Minimum Humidity 43    
Precipitation  
Precipitation 0.00 in - - ()
Sea Level Pressure  
Sea Level Pressure 30.22 in    
Wind  
Wind Speed 5 mph ()    
Max Wind Speed 18 mph    
Max Gust Speed -    
Visibility 9.0 miles    
Events      
Averages and records for this station are not official NWS values.
T = Trace of Precipitation, MM = Missing Value Source: Averaged Metar Reports

Daily Weather History Graph

Daily Weather History Graph

Search for Another Location

Airport:

Trip Planner

Search our weather history database for the weather conditions in past years. The results will help you decide how hot, cold, wet, or windy it might be!

Date:

Astronomy

Sep. 19, 2012 Rise Set
Actual Time 6:52 AM BST 7:14 PM BST
Civil Twilight 6:19 AM BST 7:47 PM BST
Nautical Twilight 5:40 AM BST 8:27 PM BST
Astronomical Twilight 4:58 AM BST 9:07 PM BST
Moon 11:19 AM BST (9/19) 8:37 PM BST (9/19)
Length of Visible Light 13h 28m
Length of Day
12h 22m
Waxing Crescent, 15% of the Moon is Illuminated
Sep 19
Waxing Crescent
Sep 22
First Quarter
Sep 30
Full
Oct 8
Last Quarter
Oct 15
New

Hourly Weather History & Observations

Time (BST) Temp. Windchill Dew Point Humidity Pressure Visibility Wind Dir Wind Speed Gust Speed Precip Events Conditions
12:50 AM 42 °F - 40 °F 88% 30.18 in 12 mi SSW 2.3 mph - -   Scattered Clouds
12:50 AM 42.8 °F - 39.2 °F 87% 30.15 in - SSW 2.3 mph - N/A   Clear
1:50 AM 42.8 °F - 41.0 °F 93% 30.18 in - West 1.2 mph - N/A   Clear
2:50 AM 46.4 °F 42.9 °F 41.0 °F 81% 30.18 in - WSW 6.9 mph - N/A   Clear
3:50 AM 42 °F - 40 °F 91% 30.19 in 16 mi West 5.8 mph - -   Scattered Clouds
3:50 AM 42.8 °F 39.3 °F 41.0 °F 93% 30.18 in - West 5.8 mph - N/A   Clear
4:50 AM 39.2 °F - 37.4 °F 93% 30.18 in - ESE 1.2 mph - N/A   Clear
5:50 AM 39.2 °F - 39.2 °F 100% 30.18 in - West 2.3 mph - N/A   Clear
6:50 AM 37 °F - 37 °F 99% 30.22 in 19 mi ESE 1.2 mph - -   Scattered Clouds
6:50 AM 37.4 °F - 37.4 °F 100% 30.21 in 6.2 mi ESE 1.2 mph - N/A   Partly Cloudy
7:50 AM 39.2 °F 37.0 °F 39.2 °F 100% 30.21 in 6.2 mi SE 3.5 mph - N/A   Partly Cloudy
8:50 AM 46.4 °F 45.2 °F 44.6 °F 93% 30.24 in 6.2 mi West 3.5 mph - N/A   Partly Cloudy
9:50 AM 53 °F - 47 °F 72% 30.25 in 19 mi West 6.9 mph - -   Scattered Clouds
9:50 AM 53.6 °F - 46.4 °F 77% 30.24 in 6.2 mi West 6.9 mph - N/A   Partly Cloudy
10:50 AM 57.2 °F - 46.4 °F 67% 30.24 in 6.2 mi NW 13.8 mph - N/A   Partly Cloudy
11:50 AM 59.0 °F - 42.8 °F 55% 30.24 in 6.2 mi WNW 18.4 mph - N/A   Partly Cloudy
12:50 PM 58 °F - 42 °F 43% 30.26 in 19 mi WNW 16.1 mph - -   Partly Cloudy
12:50 PM 57.2 °F - 41.0 °F 55% 30.24 in 6.2 mi WNW 16.1 mph - N/A   Scattered Clouds
1:50 PM 59.0 °F - 39.2 °F 48% 30.24 in 6.2 mi West 15.0 mph - N/A   Scattered Clouds
2:50 PM 57.2 °F - 41.0 °F 55% 30.24 in 6.2 mi WNW 13.8 mph - N/A   Partly Cloudy
3:50 PM 60.8 °F - 41.0 °F 48% 30.24 in 6.2 mi WNW 15.0 mph - N/A   Partly Cloudy
4:50 PM 59.0 °F - 42.8 °F 55% 30.21 in 6.2 mi WNW 12.7 mph - N/A   Partly Cloudy
5:50 PM 59.0 °F - 44.6 °F 59% 30.21 in 6.2 mi NW 12.7 mph - N/A   Scattered Clouds
6:50 PM 55 °F - 45 °F 59% 30.24 in 16 mi NW 8.1 mph - -   Partly Cloudy
6:50 PM 55.4 °F - 44.6 °F 67% 30.21 in 6.2 mi NW 8.1 mph - N/A   Scattered Clouds
7:50 PM 51.8 °F - 44.6 °F 76% 30.21 in 6.2 mi WSW 3.5 mph - N/A   Scattered Clouds
8:50 PM 51.8 °F - 44.6 °F 76% 30.24 in 6.2 mi WSW 5.8 mph - N/A   Scattered Clouds
9:50 PM 50 °F - 44 °F 75% 30.25 in 12 mi East 1.2 mph - -   Scattered Clouds
9:50 PM 50.0 °F - 44.6 °F 82% 30.24 in 6.2 mi East 1.2 mph - N/A   Scattered Clouds
10:50 PM 48.2 °F - 44.6 °F 87% 30.24 in 6.2 mi South 3.5 mph - N/A   Mostly Cloudy
11:50 PM 48.2 °F - 44.6 °F 87% 30.21 in 6.2 mi SSE 5.8 mph - N/A   Scattered Clouds